Theta_e
306 304 300 304 309 312 314 316 319 322 331 330 330 339 342 348 354 358 358 357 358 360 359 360 360 359 358 358 359 359 359 358
302 299 305 308 311 314 314 321 326 325 324 337 343 342 346 352 354 357 356 355 359 360 359 359 360 359 359 359 358 358 357 357
297 299 305 309 313 313 314 314 321 318 322 331 343 348 351 353 354 354 355 354 357 360 359 359 359 359 359 359 358 357 356 356
292 296 302 309 313 314 313 314 315 317 327 332 346 348 351 353 353 355 355 355 356 359 359 357 358 358 359 359 359 358 357 356
295 295 299 304 313 312 313 314 314 324 324 335 341 349 352 352 353 355 356 354 354 354 357 358 357 357 358 359 359 358 356 356
295 295 296 304 308 312 313 313 319 326 320 327 339 350 350 351 351 352 354 353 352 353 351 353 353 356 357 358 358 358 356 355
295 296 299 305 306 311 314 313 325 332 333 338 343 348 346 346 347 348 350 351 350 349 352 353 351 353 355 355 356 356 355 354
298 300 300 304 305 308 311 316 322 331 337 341 344 345 342 342 342 344 347 349 350 350 350 351 350 353 351 349 347 350 352 353
299 301 303 303 303 308 307 313 321 322 334 339 341 342 341 342 342 343 347 349 350 353 353 350 350 353 350 350 349 350 351 352
301 301 302 301 303 303 306 310 328 321 330 338 339 340 340 339 340 343 345 349 351 352 352 353 352 351 351 349 349 347 348 351
304 302 303 304 302 302 304 308 310 311 313 332 339 339 340 341 342 343 344 347 349 349 353 353 353 351 350 351 349 348 348 349
304 303 303 301 302 302 305 309 309 310 321 329 335 338 337 338 340 342 344 345 347 348 352 352 352 351 351 352 351 349 346 345
302 303 302 303 299 300 306 308 307 308 320 334 336 338 336 337 339 342 344 346 344 346 347 349 352 351 351 351 350 348 345 347
299 302 303 301 294 302 306 306 305 307 315 333 336 337 339 339 339 342 343 344 346 346 347 351 350 350 349 349 348 346 344 343
295 302 301 300 296 302 306 305 305 307 315 332 336 338 340 341 340 340 341 343 343 345 345 347 347 345 346 347 344 343 344 343
292 299 300 298 298 302 303 304 305 307 315 331 335 337 340 341 341 341 341 343 343 343 344 345 342 343 343 345 347 349 351 352
295 299 298 297 298 300 304 303 304 306 313 329 334 338 341 340 340 340 341 343 343 342 345 347 345 345 347 347 351 351 353 353
296 297 298 297 296 300 303 303 305 307 321 329 333 335 337 339 340 340 342 344 344 344 348 349 350 351 349 348 347 348 348 349
294 296 298 297 294 297 301 304 307 309 318 330 332 332 334 337 339 341 340 342 344 345 349 351 352 350 345 342 342 341 342 336
296 293 289 297 288 295 299 302 308 309 320 328 332 335 336 337 338 340 340 343 345 346 349 349 348 342 342 339 336 341 335 333
Wind_Speed
5 7 19 13 11 17 9 8 7 4 2 0 3 1 4 4 18 22 21 18 17 20 20 18 18 19 18 16 15 15 15 14
9 20 21 20 7 9 4 1 4 1 3 3 3 3 6 15 19 21 20 19 18 18 18 18 18 18 18 16 15 14 14 14
11 23 16 14 11 6 7 2 3 5 1 1 2 4 13 18 18 20 18 17 17 17 17 18 18 18 18 17 15 14 13 12
21 22 22 13 15 14 10 6 7 4 1 1 4 9 14 18 18 18 18 18 16 16 16 16 17 17 16 16 14 13 12 11
14 21 20 20 14 11 13 13 10 2 2 2 7 10 14 16 17 17 17 17 15 15 14 14 15 17 16 14 13 12 11 9
12 16 28 16 16 14 17 14 6 4 6 4 9 15 14 15 16 16 17 16 16 14 14 13 13 15 15 14 12 11 10 9
21 21 11 8 12 8 8 18 7 7 1 2 20 18 17 15 16 15 15 17 17 16 14 13 12 12 14 14 12 10 9 8
6 13 9 12 16 11 8 13 15 8 5 13 19 19 19 20 19 18 18 17 16 15 14 12 9 11 9 10 8 7 7 7
11 13 12 12 9 9 11 13 13 15 12 17 17 17 18 18 17 17 16 13 14 14 12 12 9 7 5 5 5 5 6 5
15 6 6 9 4 5 11 9 7 9 8 15 19 20 21 20 17 16 15 14 15 14 12 11 8 7 7 6 5 4 5 5
16 11 7 8 11 7 12 13 7 4 4 16 18 18 17 16 15 16 16 14 14 11 12 11 10 7 5 5 5 5 5 5
19 19 11 10 11 6 16 12 12 7 6 12 18 20 18 18 18 17 15 16 14 15 13 12 9 9 7 6 6 4 4 4
24 16 10 6 16 26 16 13 9 5 3 9 16 20 21 21 18 18 15 15 16 14 13 14 13 10 7 7 7 6 5 6
17 23 11 10 27 21 18 14 18 11 4 9 17 21 19 18 18 18 17 18 17 14 14 13 11 9 6 6 5 5 4 4
12 25 15 21 13 14 15 13 20 13 8 10 12 14 14 18 18 19 17 17 17 15 16 14 10 7 7 7 6 5 4 4
24 14 30 22 20 9 4 13 19 15 11 12 13 16 15 17 16 17 17 17 15 14 14 14 9 8 7 6 6 6 5 5
18 12 20 30 17 21 10 8 14 14 14 14 14 10 13 15 16 16 16 18 17 16 15 11 11 11 9 9 9 8 6 7
13 25 15 18 21 17 25 10 12 12 14 16 16 14 14 16 18 19 19 18 18 16 17 14 12 10 8 10 7 8 10 14
4 18 15 13 16 17 21 19 13 9 13 17 21 20 17 17 17 17 18 19 18 17 17 14 14 8 5 4 4 3 4 7
7 8 11 15 6 17 17 15 14 13 13 15 18 18 16 17 17 17 16 16 16 16 14 11 10 8 8 5 4 3 6 7
Wind_Direction
199 215 226 234 208 237 253 278 294 290 295 63 117 160 173 137 158 150 147 147 154 147 146 150 144 136 134 133 134 136 132 129
230 219 230 224 203 224 233 218 191 272 249 103 43 154 160 150 155 153 148 147 148 145 147 148 145 140 136 135 133 131 131 135
229 233 231 221 216 192 209 254 240 356 132 275 31 103 142 150 155 153 146 147 148 146 148 151 150 143 139 135 136 136 138 141
221 225 229 225 223 229 235 248 292 286 250 199 121 155 154 151 156 153 148 146 148 147 151 153 150 144 140 138 139 140 142 138
249 236 237 226 222 220 236 239 244 257 238 112 180 155 155 155 153 152 150 149 151 158 153 151 152 145 141 140 139 142 138 139
228 227 244 221 219 240 227 237 247 213 229 202 173 155 157 154 158 157 156 156 157 160 162 163 158 148 143 143 144 142 142 140
221 222 227 221 212 194 229 231 218 192 227 80 146 149 156 157 163 163 166 167 165 162 165 164 162 152 144 150 148 151 151 140
232 231 233 243 220 202 205 200 206 195 100 130 149 156 167 173 170 173 171 174 167 165 163 164 159 155 157 158 173 179 173 168
236 235 231 233 221 228 218 216 213 210 166 158 163 169 178 180 177 174 173 172 169 165 160 170 160 156 157 157 163 173 181 176
228 239 229 223 310 247 231 212 129 108 142 171 175 179 180 178 174 172 174 177 175 165 164 165 161 165 165 167 166 174 173 180
242 245 286 298 244 258 263 253 257 284 205 189 187 183 178 174 170 174 173 173 173 165 172 164 167 160 174 167 175 168 176 182
235 242 260 270 269 255 242 250 252 252 241 203 190 180 171 176 173 173 172 169 169 176 171 165 172 170 172 174 163 176 183 185
235 228 238 235 252 234 234 264 274 259 271 182 186 180 182 180 175 173 173 164 171 180 176 179 177 178 176 177 171 176 190 192
220 225 225 207 234 230 232 251 257 257 226 184 178 184 188 180 174 171 171 176 171 177 177 181 178 169 173 172 181 176 181 197
227 217 220 216 242 236 244 233 244 239 218 184 168 180 189 182 173 174 168 168 172 174 175 172 169 162 163 163 180 174 174 179
220 200 213 221 229 265 297 221 232 221 208 188 177 185 181 180 175 167 165 172 160 164 169 167 155 159 154 166 171 168 168 167
221 217 211 220 217 234 263 230 233 211 196 188 184 171 172 173 165 158 163 166 165 163 167 159 162 161 161 166 159 157 156 164
224 218 212 210 227 226 244 252 238 204 183 181 174 173 173 169 169 172 169 170 169 165 169 170 173 179 180 169 185 177 173 157
289 190 203 193 216 219 234 242 257 217 210 187 182 177 179 176 178 175 174 173 174 169 173 176 182 167 108 92 98 106 86 67
266 189 193 202 187 214 209 214 227 212 196 191 186 179 181 178 176 183 176 174 173 170 174 168 163 157 162 144 141 75 86 89